Location: Milo
(50.5667°N, 112.8833°W)
Time: 00:44:27
(UTC+00:00)

N. Korean satellite - Pass Details

Date: 07 December 2021
Orbit: 446 x 492 km, 97.3° (Epoch: 16 January)

Event Time Altitude Azimuth Distance (km) Brightness Sun altitude
Rises 12:41:11 0° 16° (NNE) 2,468 10.3 -23.8°
Reaches altitude 10° 12:43:16 10° 21° (NNE) 1,587 9.3 -23.5°
Maximum altitude 12:46:36 56° 101° (E) 540 7.0 -23.0°
Drops below altitude 10° 12:49:55 10° 180° (S) 1,572 9.2 -22.5°
Sets 12:51:58 0° 185° (S) 2,441 10.2 -22.2°
